�N����,����,�~����,�C��,���x,�C��,����,���ϕ���,�ő�u�ԕ���,�ő厞����,���˗�,�I�_���x,�n�����x,�ő啗���N��,DTYPE
"19/07/31","00:10",0.0,26.2,86.5,1005.5,326.3,1.0,2.0,335.2,0.00,23.8,27.8,"00:01:28",1
"19/07/31","00:20",0.0,26.0,86.8,1005.5,304.4,0.5,0.8,337.5,0.00,23.7,27.8,"00:13:28",1
"19/07/31","00:30",0.0,26.0,87.2,1005.5,322.8,0.8,1.7,311.7,0.00,23.7,27.6,"00:27:20",1
"19/07/31","00:40",0.0,25.8,87.3,1005.5,320.0,0.8,1.7,342.1,0.00,23.6,27.6,"00:38:16",1
"19/07/31","00:50",0.0,25.8,87.3,1005.7,281.3,0.6,1.4,321.7,0.00,23.6,27.6,"00:40:08",1
"19/07/31","01:00",0.0,25.7,87.3,1005.5,288.1,0.7,1.0,302.3,0.00,23.5,27.3,"00:59:12",1
"19/07/31","01:10",0.0,25.6,87.6,1005.2,315.8,0.8,1.3,331.1,0.00,23.4,27.5,"01:02:24",1
"19/07/31","01:20",0.0,25.7,87.7,1005.5,313.6,0.7,1.8,313.7,0.00,23.5,27.5,"01:10:08",1
"19/07/31","01:30",0.0,25.6,87.8,1005.5,302.0,0.6,1.7,344.5,0.00,23.5,27.5,"01:20:16",1
"19/07/31","01:40",0.0,25.5,88.4,1005.5,298.1,0.5,1.2,306.7,0.00,23.5,27.3,"01:39:04",1
"19/07/31","01:50",0.0,25.5,88.2,1005.2,325.2,1.0,1.8,340.0,0.00,23.4,27.3,"01:45:28",1
"19/07/31","02:00",0.0,25.6,88.4,1005.2,341.2,0.8,1.7,351.6,0.00,23.6,27.1,"01:54:00",1
"19/07/31","02:10",0.0,25.5,88.6,1005.2,284.8,0.7,1.6,349.8,0.00,23.5,27.2,"02:01:12",1
"19/07/31","02:20",0.0,25.4,88.6,1005.0,253.3,0.5,1.0,316.0,0.00,23.4,27.2,"02:13:20",1
"19/07/31","02:30",0.0,25.4,88.7,1005.2,283.6,0.7,1.6,315.3,0.00,23.4,27.1,"02:28:24",1
"19/07/31","02:40",0.0,25.4,88.9,1005.2,327.7,1.1,1.9,328.0,0.00,23.5,27.0,"02:35:36",1
"19/07/31","02:50",0.0,25.3,89.1,1005.2,306.3,0.8,1.7,328.9,0.00,23.4,27.0,"02:41:28",1
"19/07/31","03:00",0.0,25.3,89.1,1005.7,287.9,1.0,1.8,331.0,0.00,23.4,26.9,"02:51:28",1
"19/07/31","03:10",0.0,25.4,89.3,1005.5,310.4,1.0,1.8,330.0,0.00,23.5,26.9,"03:00:32",1
"19/07/31","03:20",0.0,25.5,89.5,1005.5,328.3,1.1,1.6,321.5,0.00,23.7,26.8,"03:18:08",1
"19/07/31","03:30",0.0,25.7,89.4,1005.7,327.9,1.3,2.9,344.4,0.00,23.9,26.9,"03:29:28",1
"19/07/31","03:40",0.0,26.0,88.9,1005.5,335.1,1.5,2.8,334.1,0.00,24.1,26.9,"03:39:04",1
"19/07/31","03:50",0.0,26.2,88.2,1005.2,334.6,1.3,3.1,334.5,0.00,24.1,27.1,"03:40:32",1
"19/07/31","04:00",0.0,26.1,87.8,1005.5,331.1,1.1,2.1,337.3,0.00,24.0,26.8,"03:51:20",1
"19/07/31","04:10",0.0,26.1,87.7,1005.7,312.5,1.0,1.4,325.9,0.00,23.9,27.0,"04:07:28",1
"19/07/31","04:20",0.0,25.9,87.8,1005.7,296.4,0.8,1.6,330.8,0.00,23.8,26.9,"04:14:40",1
"19/07/31","04:30",0.0,25.7,87.9,1006.0,314.2,1.1,1.9,310.2,0.00,23.6,26.7,"04:21:20",1
"19/07/31","04:40",0.0,25.6,88.4,1005.7,302.5,0.5,0.9,323.7,0.00,23.6,26.9,"04:30:08",1
"19/07/31","04:50",0.0,25.4,88.8,1005.5,284.6,0.6,1.1,252.4,0.00,23.5,26.7,"04:43:52",1
"19/07/31","05:00",0.0,25.2,88.9,1005.7,304.0,0.7,1.1,302.9,0.00,23.3,26.7,"04:52:48",1
"19/07/31","05:10",0.0,25.3,89.5,1006.2,294.9,0.7,1.1,311.1,0.00,23.5,26.7,"05:01:12",1
"19/07/31","05:20",0.0,25.4,89.5,1005.7,312.5,0.8,1.7,305.7,0.00,23.6,26.6,"05:18:00",1
"19/07/31","05:30",0.0,25.5,89.8,1006.0,322.0,0.8,1.3,330.7,0.00,23.7,26.7,"05:25:44",1
"19/07/31","05:40",0.0,25.5,89.7,1006.2,323.4,1.0,1.6,329.2,0.00,23.7,26.6,"05:39:36",1
"19/07/31","05:50",0.0,25.6,89.5,1006.4,313.9,1.1,2.0,342.1,0.00,23.8,26.6,"05:43:12",1
"19/07/31","06:00",0.0,25.7,89.5,1006.2,296.3,0.7,1.1,265.0,0.00,23.9,26.8,"05:58:00",1
"19/07/31","06:10",0.0,25.8,89.5,1006.2,296.2,0.7,1.3,316.8,0.00,24.0,26.7,"06:02:00",1
"19/07/31","06:20",0.0,26.1,89.8,1006.2,327.0,1.0,1.7,339.7,0.00,24.3,26.6,"06:16:16",1
"19/07/31","06:30",0.0,26.1,89.5,1006.7,296.2,0.8,1.3,317.6,0.00,24.3,26.7,"06:25:52",1
"19/07/31","06:40",0.0,26.2,89.1,1006.4,280.5,0.6,1.1,298.5,0.00,24.3,26.6,"06:31:12",1
"19/07/31","06:50",0.0,26.3,89.2,1006.7,304.9,0.7,1.3,296.6,0.02,24.4,26.6,"06:44:56",1
"19/07/31","07:00",0.0,26.8,88.6,1006.4,326.3,0.7,1.6,330.9,0.04,24.8,26.7,"06:52:08",1
"19/07/31","07:10",0.0,27.5,87.4,1006.4,36.5,0.3,1.1,51.0,0.06,25.3,26.7,"07:07:28",1
"19/07/31","07:20",0.0,28.0,86.3,1006.2,96.1,0.3,0.9,20.9,0.07,25.5,26.8,"07:12:56",1
"19/07/31","07:30",0.0,28.6,84.3,1006.2,57.0,0.3,1.1,7.0,0.08,25.7,26.9,"07:21:36",1
"19/07/31","07:40",0.0,29.0,80.7,1005.7,75.0,0.6,1.3,37.5,0.11,25.4,27.0,"07:39:12",1
"19/07/31","07:50",0.0,29.6,77.3,1006.4,80.1,0.5,1.3,18.2,0.12,25.2,27.2,"07:40:32",1
"19/07/31","08:00",0.0,29.9,75.0,1006.7,57.7,0.6,1.4,85.8,0.19,25.0,27.2,"07:57:28",1
"19/07/31","08:10",0.0,29.8,73.6,1007.1,38.0,0.8,2.1,3.8,0.21,24.6,27.3,"08:06:16",1
"19/07/31","08:20",0.0,29.9,74.9,1007.1,21.2,0.7,2.1,343.3,0.22,25.0,27.5,"08:11:44",1
"19/07/31","08:30",0.0,30.3,72.8,1007.6,31.8,0.6,2.1,13.7,0.23,24.9,27.5,"08:28:32",1
"19/07/31","08:40",0.0,30.5,72.6,1007.6,29.0,0.8,2.5,26.4,0.23,25.1,27.6,"08:36:32",1
"19/07/31","08:50",0.0,29.7,74.2,1007.4,4.0,0.7,1.8,353.5,0.14,24.7,27.9,"08:40:48",1
"19/07/31","09:00",0.0,30.6,72.7,1007.8,42.5,0.8,1.8,51.5,0.29,25.2,27.8,"08:53:04",1
"19/07/31","09:10",0.0,31.0,71.5,1008.1,354.1,0.8,1.8,346.3,0.37,25.3,28.0,"09:02:56",1
"19/07/31","09:20",0.0,30.8,70.3,1008.3,104.4,0.8,2.2,108.2,0.30,24.8,28.2,"09:12:24",1
"19/07/31","09:30",0.0,30.7,73.4,1008.6,124.2,0.6,1.8,116.3,0.18,25.4,28.5,"09:27:12",1
"19/07/31","09:40",0.0,31.5,72.7,1008.3,131.7,0.7,2.1,354.9,0.25,26.0,28.4,"09:37:28",1
"19/07/31","09:50",0.0,31.1,71.9,1008.3,291.0,0.7,2.0,351.0,0.32,25.5,28.5,"09:40:24",1
"19/07/31","10:00",0.0,31.4,70.2,1007.8,333.6,1.1,2.7,357.7,0.40,25.4,28.8,"09:55:44",1
"19/07/31","10:10",0.0,32.6,68.6,1008.3,336.4,0.7,2.1,219.3,0.44,26.1,28.7,"10:09:44",1
"19/07/31","10:20",0.0,32.0,70.0,1008.3,195.4,1.3,3.1,208.9,0.34,25.9,29.1,"10:16:40",1
"19/07/31","10:30",0.0,32.6,66.7,1008.3,298.4,1.0,2.2,16.5,0.43,25.6,29.5,"10:23:44",1
"19/07/31","10:40",0.0,31.9,67.2,1008.1,287.1,1.6,4.7,222.4,0.31,25.1,29.3,"10:36:32",1
"19/07/31","10:50",0.0,32.1,64.7,1008.6,210.1,1.6,3.9,227.0,0.47,24.7,29.7,"10:43:36",1
"19/07/31","11:00",0.0,32.8,64.6,1008.1,212.6,1.6,3.6,203.2,0.49,25.3,29.7,"10:58:24",1
"19/07/31","11:10",0.0,32.7,63.3,1008.1,200.4,1.5,3.4,237.8,0.48,24.9,29.7,"11:04:56",1
"19/07/31","11:20",0.0,33.7,63.3,1008.3,218.3,1.5,3.6,227.7,0.52,25.8,30.0,"11:13:06",1
"19/07/31","11:30",0.0,33.5,63.3,1008.3,255.8,1.1,3.2,230.6,0.56,25.6,30.3,"11:22:16",1
"19/07/31","11:40",0.0,33.9,60.6,1008.6,65.9,1.1,3.1,115.9,0.55,25.2,30.7,"11:32:40",1
"19/07/31","11:50",0.0,33.1,62.3,1008.1,213.4,1.8,4.5,213.0,0.30,25.0,30.6,"11:45:36",1
"19/07/31","12:00",0.0,33.7,59.9,1008.1,156.9,1.1,2.7,217.7,0.45,24.9,30.9,"11:56:00",1
"19/07/31","12:10",0.0,33.6,62.9,1008.1,209.4,1.1,4.4,178.2,0.38,25.6,31.0,"12:08:00",1
"19/07/31","12:20",0.0,32.7,63.6,1007.4,201.8,2.3,4.9,200.7,0.19,24.9,30.9,"12:12:08",1
"19/07/31","12:30",0.0,33.8,60.9,1007.4,151.8,1.8,3.5,209.7,0.62,25.2,31.1,"12:20:08",1
"19/07/31","12:40",0.0,33.6,61.6,1007.4,193.9,2.0,4.3,235.0,0.23,25.2,31.2,"12:39:44",1
"19/07/31","12:50",0.0,33.7,63.3,1007.1,192.2,2.3,4.5,219.5,0.34,25.8,31.3,"12:42:08",1
"19/07/31","13:00",0.0,33.8,59.7,1006.9,196.5,2.3,4.9,221.5,0.35,24.9,31.0,"12:59:20",1
"19/07/31","13:10",0.0,34.1,60.1,1007.6,195.7,1.7,3.6,210.3,0.43,25.3,31.1,"13:01:04",1
"19/07/31","13:20",0.0,33.8,60.2,1006.9,221.6,1.1,2.8,224.5,0.26,25.0,31.3,"13:11:36",1
"19/07/31","13:30",0.0,34.2,60.3,1007.1,214.0,1.6,4.5,224.1,0.30,25.4,31.4,"13:23:44",1
"19/07/31","13:40",0.0,33.5,61.4,1007.1,201.2,1.2,2.5,208.7,0.13,25.1,31.2,"13:33:28",1
"19/07/31","13:50",0.0,33.7,62.2,1007.1,233.0,0.7,3.7,227.9,0.22,25.5,31.4,"13:42:32",1
"19/07/31","14:00",0.0,33.3,63.7,1006.4,185.9,1.8,3.4,187.7,0.12,25.5,31.2,"13:52:56",1
"19/07/31","14:10",0.0,34.5,59.9,1006.4,210.9,1.1,3.1,227.3,0.36,25.6,30.9,"14:03:36",1
"19/07/31","14:20",0.0,34.2,59.6,1006.9,236.5,1.0,2.6,218.6,0.32,25.2,31.2,"14:13:14",1
"19/07/31","14:30",0.0,33.9,61.7,1006.9,315.6,1.0,2.5,316.2,0.16,25.5,31.2,"14:28:14",1
"19/07/31","14:40",0.0,35.2,58.8,1006.7,255.6,0.6,2.2,223.8,0.38,26.0,31.3,"14:36:56",1
"19/07/31","14:50",0.0,34.2,59.8,1006.7,292.6,1.0,2.7,217.4,0.17,25.3,31.3,"14:41:44",1
"19/07/31","15:00",0.0,33.9,62.5,1006.4,330.2,1.1,2.1,358.5,0.16,25.8,31.1,"14:54:16",1
"19/07/31","15:10",0.0,34.3,59.8,1006.4,293.8,0.7,2.5,1.4,0.24,25.4,31.1,"15:06:16",1
"19/07/31","15:20",0.0,33.5,61.6,1006.0,303.4,0.6,1.7,333.3,0.08,25.1,31.0,"15:14:08",1
"19/07/31","15:30",0.0,34.0,61.4,1005.5,258.7,0.7,2.6,227.8,0.05,25.6,31.2,"15:27:20",1
"19/07/31","15:40",0.0,33.8,61.6,1005.5,308.1,0.7,1.8,318.1,0.06,25.4,30.8,"15:38:56",1
"19/07/31","15:50",0.0,33.6,62.3,1005.5,312.4,0.7,1.7,241.4,0.07,25.4,30.8,"15:41:20",1
"19/07/31","16:00",0.0,33.4,66.9,1004.8,278.3,0.5,1.7,325.4,0.06,26.4,30.8,"15:58:16",1
"19/07/31","16:10",0.0,30.3,73.9,1004.8,278.3,1.0,3.2,354.7,0.06,25.2,30.5,"16:06:24",1
"19/07/31","16:20",0.0,30.1,75.3,1003.6,279.5,1.0,2.7,319.2,0.06,25.3,30.6,"16:16:00",1
"19/07/31","16:30",0.2,29.1,76.3,1003.4,340.4,3.1,7.5,338.4,0.08,24.5,30.4,"16:29:12",1
"19/07/31","16:40",0.2,29.4,76.6,1002.2,349.3,2.8,5.7,332.9,0.13,24.9,30.3,"16:33:28",1
"19/07/31","16:50",0.0,29.2,78.3,1002.4,349.9,1.7,3.5,349.4,0.13,25.1,30.3,"16:40:08",1
"19/07/31","17:00",0.0,29.9,82.6,1002.4,356.7,0.7,1.7,15.1,0.20,26.7,30.0,"16:50:08",1
"19/07/31","17:10",0.0,30.9,78.4,1003.1,187.9,0.6,1.6,94.8,0.21,26.7,30.2,"17:02:56",1
"19/07/31","17:20",0.0,31.3,76.8,1003.6,332.4,0.8,1.8,343.7,0.17,26.8,30.1,"17:18:00",1
"19/07/31","17:30",0.0,32.0,75.0,1003.8,338.3,1.0,2.0,343.2,0.14,27.0,30.2,"17:29:52",1
"19/07/31","17:40",0.0,31.9,74.2,1004.3,297.6,0.6,1.7,354.0,0.12,26.8,30.2,"17:30:32",1
"19/07/31","17:50",0.0,32.5,75.5,1003.6,324.1,0.6,1.2,345.0,0.10,27.6,30.2,"17:44:24",1
"19/07/31","18:00",0.0,31.9,76.3,1004.3,322.1,1.0,2.8,349.2,0.05,27.2,30.2,"17:56:32",1
"19/07/31","18:10",0.0,31.6,77.2,1004.1,325.5,0.6,1.4,353.6,0.04,27.2,30.2,"18:00:08",1
"19/07/31","18:20",0.0,31.6,77.0,1004.3,312.1,0.7,1.4,346.1,0.03,27.1,29.9,"18:10:40",1
"19/07/31","18:30",0.0,31.2,79.1,1004.3,293.7,0.6,1.1,308.7,0.02,27.2,29.9,"18:21:52",1
"19/07/31","18:40",0.0,30.8,80.5,1004.3,321.7,0.3,1.0,298.8,0.02,27.1,29.9,"18:39:36",1
"19/07/31","18:50",0.0,30.5,82.1,1004.1,307.2,0.6,1.3,347.9,0.01,27.1,30.1,"18:44:32",1
"19/07/31","19:00",0.0,29.9,83.3,1003.8,320.3,0.8,2.1,352.7,0.00,26.8,29.8,"18:55:20",1
"19/07/31","19:10",0.0,29.5,84.5,1004.1,298.9,0.5,1.1,247.3,0.00,26.6,29.6,"19:08:00",1
"19/07/31","19:20",0.0,29.0,84.8,1003.6,247.4,0.7,1.6,232.9,0.00,26.2,29.6,"19:16:24",1
"19/07/31","19:30",0.0,28.7,85.3,1003.4,276.9,0.8,1.9,240.6,0.00,26.0,29.4,"19:22:16",1
"19/07/31","19:40",0.0,28.5,85.8,1003.6,263.8,0.5,1.2,240.2,0.00,25.9,29.5,"19:31:12",1
"19/07/31","19:50",0.0,28.3,86.0,1004.1,294.7,0.5,1.2,333.8,0.00,25.8,29.3,"19:49:12",1
"19/07/31","20:00",0.0,28.3,86.5,1003.8,330.3,1.5,4.0,342.5,0.00,25.9,29.2,"19:54:32",1
"19/07/31","20:10",0.0,28.0,87.0,1003.8,303.7,0.7,1.8,338.1,0.00,25.7,29.1,"20:04:48",1
"19/07/31","20:20",0.0,27.8,87.1,1004.3,270.0,0.7,1.2,229.2,0.00,25.5,29.0,"20:14:56",1
"19/07/31","20:30",0.0,27.8,87.3,1004.5,307.1,1.1,2.4,330.5,0.00,25.5,29.0,"20:26:40",1
"19/07/31","20:40",0.0,27.8,87.2,1004.5,290.7,1.1,1.8,337.2,0.00,25.5,28.8,"20:34:32",1
"19/07/31","20:50",0.0,27.8,86.9,1004.8,268.3,1.0,1.7,237.3,0.00,25.5,28.9,"20:47:04",1
"19/07/31","21:00",0.0,27.8,86.7,1005.0,270.6,0.8,1.9,267.7,0.00,25.4,28.9,"20:50:56",1
"19/07/31","21:10",0.0,27.7,86.8,1005.0,301.1,1.0,2.5,351.2,0.00,25.3,28.6,"21:09:04",1
"19/07/31","21:20",0.0,27.6,86.9,1005.0,329.7,1.2,2.1,340.3,0.00,25.3,28.6,"21:10:16",1
"19/07/31","21:30",0.0,27.5,86.9,1005.0,326.6,0.8,1.7,350.6,0.00,25.2,28.2,"21:21:36",1
"19/07/31","21:40",0.0,27.6,86.7,1005.0,336.0,1.6,3.2,346.0,0.00,25.2,28.4,"21:34:16",1
"19/07/31","21:50",0.0,27.8,86.0,1005.2,338.3,1.5,3.5,349.1,0.00,25.3,28.5,"21:43:20",1
"19/07/31","22:00",0.0,27.8,85.5,1005.2,324.5,0.8,1.6,352.7,0.00,25.2,28.3,"21:55:44",1
"19/07/31","22:10",0.0,27.7,85.3,1005.5,334.8,0.8,2.4,12.4,0.00,25.0,28.2,"22:04:16",1
"19/07/31","22:20",0.0,27.6,85.1,1005.7,329.2,0.6,1.3,354.4,0.00,24.9,28.2,"22:11:12",1
"19/07/31","22:30",0.0,27.4,85.8,1006.0,278.3,0.5,1.1,259.2,0.00,24.8,28.2,"22:24:40",1
"19/07/31","22:40",0.0,27.3,86.2,1005.7,348.3,0.6,1.8,0.6,0.00,24.8,28.0,"22:37:04",1
"19/07/31","22:50",0.0,27.0,87.1,1006.0,295.8,0.6,1.7,323.6,0.00,24.7,28.2,"22:40:08",1
"19/07/31","23:00",0.0,26.7,87.5,1006.0,290.3,0.7,1.2,345.8,0.00,24.5,28.0,"22:50:24",1
"19/07/31","23:10",0.0,26.6,87.7,1006.2,303.5,0.8,1.4,314.7,0.00,24.4,28.0,"23:07:36",1
"19/07/31","23:20",0.0,26.6,88.0,1006.0,318.7,1.0,1.7,345.0,0.00,24.5,27.9,"23:17:36",1
"19/07/31","23:30",0.0,26.5,88.4,1006.4,285.6,0.8,1.2,318.7,0.00,24.5,27.8,"23:20:08",1
"19/07/31","23:40",0.0,26.5,88.6,1006.2,295.8,0.8,1.4,276.3,0.00,24.5,27.7,"23:31:52",1
"19/07/31","23:50",0.0,26.5,88.9,1006.0,338.7,1.0,2.0,350.0,0.00,24.6,27.7,"23:44:08",1
"19/07/31","24:00",0.0,26.3,89.3,1006.0,285.2,0.6,1.1,307.2,0.00,24.4,27.7,"23:50:40",1
